Nome, AK

1:03 PM AKDT on June 27, 2017 (GMT -0800)
Nome

Weather History for PAOM - May, 2013

Change the Weather History Date:

Wednesday, May 8, 2013

  Actual Average Record
Temperature  
Mean Temperature 30 °F 33 °F  
Max Temperature 31 °F 39 °F 56 °F (1980)
Min Temperature 28 °F 27 °F 6 °F (1916)
Degree Days  
Heating Degree Days 35 32  
Month to date heating degree days 334 268  
Since 1 July heating degree days 13075 12578  
Cooling Degree Days 0 0  
Month to date cooling degree days 0 0  
Year to date cooling degree days 0 0  
Moisture  
Dew Point 28 °F    
Average Humidity 0    
Maximum Humidity 0    
Minimum Humidity 0    
Precipitation  
Precipitation 0.03 in 0.02 in 0.37 in (1943)
Month to date precipitation 0.08 0.22  
Year to date precipitation 2.54 3.50  
Snow  
Snow 0.30 in 0.10 in 0.60 in (1960)
Month to date snowfall 1.2 1.0  
Since 1 July snowfall 56.1 74.1  
Snow Depth 6.00 in    
Sea Level Pressure  
Sea Level Pressure 30.31 in    
Wind  
Wind Speed 7 mph (SE)    
Max Wind Speed 12 mph    
Max Gust Speed 14 mph    
Visibility 5 miles    
Events Snow    
T = Trace of Precipitation, MM = Missing Value Source: NWS Daily Summary

Daily Weather History Graph

Daily Weather History Graph

Search for Another Location

Airport or City:

Trip Planner

Search our weather history database for the weather conditions in past years. The results will help you decide how hot, cold, wet, or windy it might be!

Date:

Astronomy

May. 08, 2013 Rise Set
Actual Time 6:05 AM AKDT 11:54 PM AKDT
Civil Twilight 4:39 AM AKDT 1:22 AM AKDT
Nautical Twilight Sun does not set Sun does not set
Astronomical Twilight Sun does not set Sun does not set
Moon 5:53 AM AKDT (5/8) 10:46 PM AKDT (5/8)
Length of Visible Light 20h 42m
Length of Day
17h 48m
Waning Crescent, 1% of the Moon is Illuminated
May 8
Waning Crescent
May 9
New
May 17
First Quarter
May 24
Full
May 31
Last Quarter

Hourly Weather History & Observations

Time (AKDT) Temp. Windchill Dew Point Humidity Pressure Visibility Wind Dir Wind Speed Gust Speed Precip Events Conditions
12:53 AM 28.9 °F - 26.1 °F 89% 30.26 in 9.0 mi Calm Calm - 0.00 in Snow Light Snow
1:31 AM 28.4 °F 23.3 °F 26.6 °F 93% 30.26 in 2.0 mi SSE 4.6 mph - 0.00 in Snow Light Snow
1:46 AM 28.4 °F 23.3 °F 26.6 °F 93% 30.27 in 9.0 mi SSW 4.6 mph - 0.00 in   Overcast
1:53 AM 28.0 °F 24.2 °F 27.0 °F 96% 30.27 in 10.0 mi SSW 3.5 mph - 0.00 in   Overcast
2:53 AM 28.0 °F 22.8 °F 26.1 °F 92% 30.27 in 10.0 mi WSW 4.6 mph - N/A   Overcast
3:00 AM 28.4 °F 24.6 °F 26.6 °F 93% 30.27 in 10.0 mi WSW 3.5 mph - N/A   Overcast
3:53 AM 28.0 °F 22.8 °F 26.1 °F 92% 30.27 in 10.0 mi SSW 4.6 mph - N/A   Overcast
4:00 AM 28.4 °F 24.6 °F 26.6 °F 93% 30.27 in 10.0 mi SSW 3.5 mph - N/A   Overcast
4:53 AM 28.9 °F - 23.0 °F 78% 30.27 in 10.0 mi Calm Calm - N/A   Overcast
5:53 AM 28.0 °F 22.8 °F 24.1 °F 85% 30.28 in 10.0 mi SE 4.6 mph - N/A   Overcast
6:53 AM 28.0 °F 21.7 °F 24.1 °F 85% 30.28 in 10.0 mi ESE 5.8 mph - N/A   Overcast
7:01 AM 28.4 °F 22.2 °F 24.8 °F 86% 30.28 in 10.0 mi SE 5.8 mph - N/A   Overcast
7:53 AM 28.0 °F 22.8 °F 25.0 °F 88% 30.29 in 1.8 mi ESE 4.6 mph - 0.00 in Snow Light Snow
8:53 AM 28.0 °F 20.8 °F 26.1 °F 92% 30.30 in 1.5 mi ESE 6.9 mph - 0.01 in Snow Light Snow
9:41 AM 28.4 °F 21.2 °F 26.6 °F 93% 30.30 in 1.0 mi ESE 6.9 mph - 0.01 in Snow Light Snow
9:53 AM 28.0 °F 19.3 °F 26.1 °F 92% 30.30 in 1.0 mi ESE 9.2 mph - 0.01 in Snow Light Snow
10:32 AM 28.4 °F 19.7 °F 26.6 °F 93% 30.30 in 1.2 mi ESE 9.2 mph - 0.00 in Snow Light Snow
10:53 AM 28.0 °F 19.3 °F 27.0 °F 96% 30.31 in 1.2 mi ESE 9.2 mph - 0.00 in Snow Light Snow
10:58 AM 28.4 °F 19.7 °F 26.6 °F 93% 30.31 in 2.5 mi ESE 9.2 mph - 0.00 in Snow Light Snow
11:53 AM 28.9 °F 21.1 °F 28.0 °F 96% 30.32 in 2.0 mi SE 8.1 mph - 0.01 in Snow Light Snow
12:00 PM 28.4 °F 20.4 °F 28.4 °F 100% 30.31 in 1.5 mi ESE 8.1 mph - 0.00 in Snow Light Snow
12:15 PM 28.4 °F 20.4 °F 28.4 °F 100% 30.32 in 2.0 mi SE 8.1 mph - 0.00 in Snow Light Snow
12:43 PM 28.4 °F 20.4 °F 28.4 °F 100% 30.32 in 1.8 mi SE 8.1 mph - 0.00 in Snow Light Snow
12:53 PM 30.0 °F 22.4 °F 28.0 °F 92% 30.32 in 2.5 mi SE 8.1 mph - 0.00 in Snow Light Snow
1:53 PM 30.0 °F 23.2 °F 28.9 °F 96% 30.34 in 2.5 mi SE 6.9 mph - 0.00 in Snow Light Snow
2:04 PM 30.2 °F 22.6 °F 28.4 °F 93% 30.34 in 4.0 mi SE 8.1 mph - 0.00 in   Overcast
2:18 PM 30.2 °F 23.4 °F 28.4 °F 93% 30.34 in 1.8 mi SSE 6.9 mph - 0.00 in Snow Light Snow
2:33 PM 30.2 °F 23.4 °F 28.4 °F 93% 30.34 in 1.0 mi SSE 6.9 mph - 0.00 in Snow Light Snow
2:39 PM 30.2 °F 22.6 °F 28.4 °F 93% 30.34 in 2.0 mi SSE 8.1 mph - 0.00 in Snow Light Snow
2:53 PM 30.0 °F 22.4 °F 28.9 °F 96% 30.35 in 2.0 mi SSE 8.1 mph - 0.00 in Snow Light Snow
3:18 PM 30.2 °F 22.6 °F 28.4 °F 93% 30.34 in 1.5 mi SE 8.1 mph - 0.00 in Snow Light Snow
3:44 PM 30.2 °F 21.9 °F 30.2 °F 100% 30.34 in 1.8 mi SE 9.2 mph - 0.00 in Snow Light Snow
3:53 PM 30.9 °F 22.8 °F 30.0 °F 96% 30.35 in 1.8 mi SE 9.2 mph - 0.00 in Snow Light Snow
4:19 PM 30.2 °F 22.6 °F 28.4 °F 93% 30.35 in 1.8 mi SE 8.1 mph - 0.00 in Snow Light Snow
4:26 PM 30.2 °F 21.9 °F 28.4 °F 93% 30.35 in 2.0 mi SE 9.2 mph - 0.00 in Snow Light Snow
4:53 PM 30.9 °F 23.5 °F 28.9 °F 92% 30.35 in 6.0 mi SE 8.1 mph - 0.00 in   Overcast
5:53 PM 30.9 °F 23.5 °F 28.9 °F 92% 30.35 in 10.0 mi SE 8.1 mph - N/A   Overcast
6:53 PM 30.9 °F 23.5 °F 28.9 °F 92% 30.35 in 10.0 mi ESE 8.1 mph - N/A   Overcast
7:53 PM 30.9 °F 23.5 °F 28.9 °F 92% 30.34 in 10.0 mi SE 8.1 mph - N/A   Overcast
8:53 PM 30.9 °F 22.8 °F 28.9 °F 92% 30.34 in 10.0 mi ESE 9.2 mph - N/A   Overcast
9:53 PM 30.9 °F 23.5 °F 28.9 °F 92% 30.33 in 10.0 mi ESE 8.1 mph - N/A   Overcast
10:53 PM 30.9 °F 24.3 °F 28.9 °F 92% 30.34 in 10.0 mi ESE 6.9 mph - N/A   Overcast
11:33 PM 30.2 °F 22.6 °F 28.4 °F 93% 30.35 in 10.0 mi ESE 8.1 mph - N/A   Overcast
11:53 PM 30.9 °F 24.3 °F 28.9 °F 92% 30.35 in 10.0 mi ESE 6.9 mph - N/A   Overcast